Voltar ao catálogo

STARLINK-33729

AtivoComunicaçõesVLEO
NORAD 63647·PAYLOAD·🇺🇸 United States

Lançado Apr 25, 2025 de Cape Canaveral Space Force Station

Loading…

Próximas Passagens (próximas 24 horas)

TLE

AtualizadoSource: CelesTrak SupGP

Época: Sep 14, 2026, 21:28 UTC

1 63647C 25083P   26257.89493056  .00025634  00000+0  92846-3 0  2578
2 63647  43.0041  17.0108 0001474 273.0293 298.2201 15.27566188    13

Acompanhe STARLINK-33729 em tempo real com AllMySat

Download on the App Store